Weather in Nizhniy Ikorets

Russia / Voronezh Oblast     50°58′56″N   39°42′47″E
temp.,
°C
wind,
m/s
gust,
m/s
humid.,
%
clouds,
%
prec.,
mm/h
press.,
hPa
HPBL,
m
9 december, thu
thu900:00+3ese2695100 0.0 1014177
03:00+3ese3595100 0.0 1014100
06:00+2se2294100 0.0 101524
09:00+2e339488 0.0 101664
12:00+5ese348281 0.0 1016233
15:00+5ene248084 0.0 1017217
18:00+3ene378995 0.0 1019169
21:00+3e368696 0.0 1021244
10 december, fri
fri1000:00+3ene3684100 0.0 1022234
03:00+3ene368399 0.0 1023257
06:00+2ene3682100 0.0 1024271
09:00+2ene3783100 0.0 1026381
12:00+3ene4680100 0.0 1027460
15:00+3e4579100 0.0 1027464
18:00+2e468276 0.0 1028461
21:00+2e467699 0.0 1029651
11 december, sat
sat1100:00+1e467465 0.0 1029355
03:000e36815 0.0 1030112
06:00−1ene47895 0.0 1029212
09:00−2e48855 0.0 1030306
12:00+1e57706 0.0 1030480
15:00+1e47655 0.0 1030523
18:00−1e4107389 0.0 1031299
21:00−2ese4107495 0.0 1032339
12 december, sun
sun1200:00−2ese497590 0.0 1033303
03:00−2e4875100 0.0 1033290
06:00−3e5107097 0.0 1034313
09:00−3ese4116670 0.0 1035361
12:000ese69476 0.0 1034449
15:000ese59475 0.0 1034499
18:00−2ese513564 0.0 1034390
21:00−3ese61456100 0.0 1034448
13 december, mon
mon1300:00−3ese61455100 0.0 1034472
03:00−3ese61554100 0.0 1033478
06:00−3ese71553100 0.0 1032494
09:00−3ese71651100 0.0 1032533
12:00−1ese71742100 0.0 1030648
15:00−1ese71740100 0.0 1029685
18:00−1ese71740100 0.0 1029641
21:00−1se71641100 0.0 1029657